Weather in La Roche-sur-Yon

France     46°38′53″N   1°26′09″W
temp.,
°C
wind,
m/s
gust,
m/s
humid.,
%
clouds,
%
prec.,
mm/h
press.,
hPa
HPBL,
m
19 april, mon
mon1923:00+6ne337550 0.0 102332
02:00+5ene226889 0.0 102221
05:00+4ene33715 0.0 102126
08:00+5e33825 0.0 102142
11:00+12ese34615 0.0 1021591
14:00+15ese3352100 0.0 10201849
17:00+14ne2256100 0.0 10191047
20:00+12nnw3472100 0.0 101880
20 april, tue
tue2023:00+11n336696 0.0 101957
02:00+7e337623 0.0 101826
05:00+6e227627 0.0 101713
08:00+7ene237487 0.0 101738
11:00+12ne3563100 0.0 1018304
14:00+14ene445579 0.0 10171165
17:00+15ne3451100 0.0 10161846
20:00+12ne3672100 0.1 1016191
21 april, wed
wed2123:00+7ne35855 0.0 101859
02:00+8ne3678100 0.0 101795
05:00+9ne3773100 0.0 1017170
08:00+8ene377778 0.0 1017196
11:00+14ene58642 0.0 1017691
14:00+17ene675336 0.0 10161881
17:00+17ene5655100 0.0 10151717
20:00+14e497161 0.1 1014286
22 april, thu
thu2223:00+13ene3966100 0.0 1015224
02:00+12e4107091 0.0 1015336
05:00+8e379478 0.0 1015124
08:00+7ene4109488 0.0 1016217
11:00+14e687068 0.0 1017717
14:00+18e685934 0.0 10161543
17:00+17ene5866100 0.1 1016526
20:00+16ene5117041 0.3 1016412
23 april, fri
fri2323:00+14ene7156721 0.0 1018487
02:00+12e7157041 0.0 1017543
05:00+9e613875 0.0 1017298
08:00+8e613890 0.0 1016291
11:00+15ese710684 0.0 1017570
14:00+19ese810546 0.0 10151414
17:00+20ese61057100 0.0 10132001
20:00+16e71268100 0.0 1013439